Skip Page Navigation
NASA JPL Caltech
NASA Logo - Jet Propulsion Laboratory + View the NASA Portal
+ Center for Near-Earth Object Studies
JPL Home Earth Solar System Stars & Galaxies Technology
JPL Solar System Dynamics
BODIES ORBITS EPHEMERIDES TOOLS PHYSICAL DATA DISCOVERY FAQ SITE MAP
JPL Small-Body Database Browser
Search: [ help ]  
838 Seraphina (A916 SL)
Classification: Main-belt Asteroid          SPK-ID: 2000838
Ephemeris | Orbit Diagram | Orbital Elements | Mission Design | Physical Parameters | Discovery Circumstances | Close-Approach Data ]

[ hide orbit diagram ]

For accurate long-term ephemerides, please instead use our Horizons system.This orbit viewer was implemented using two-body methods, and hence should not be used for determining accurate long-term trajectories (over several years or decades) or planetary encounter circumstances.


[ revert to old Java-based viewer ]

Orbital Elements at Epoch 2459000.5 (2020-May-31.0) TDB
Reference: JPL 74 (heliocentric ecliptic J2000)
 Element Value Uncertainty (1-sigma)   Units 
e .1308904922838852 3.077e-08  
a 2.898295835539348 1.0666e-08 au
q 2.518936466841268 8.9482e-08 au
i 10.42261589778919 3.908e-06 deg
node 240.053144467995 1.9419e-05 deg
peri 117.1042248616116 2.4624e-05 deg
M 15.2480024557756 1.6007e-05 deg
tp 2458924.165133825308
(2020-Mar-15.66513383)
7.9989e-05 TDB
period 1802.239467273973
4.93
9.949e-06
2.724e-08
d
yr
n .1997514794992964 1.1027e-09 deg/d
Q 3.277655204237428 1.2062e-08 au
  Orbit Determination Parameters
   # obs. used (total)      3021  
   data-arc span      37724 days (103.28 yr)  
   first obs. used      1916-09-24  
   last obs. used      2020-01-06  
   planetary ephem.      DE431  
   SB-pert. ephem.      SB431-N16  
   condition code      0  
   norm. resid. RMS      .42311  
   source      ORB  
   producer      Otto Matic  
   solution date      2020-Feb-22 15:38:34  

Additional Information
 Earth MOID = 1.53687 au 
 Jupiter MOID = 2.28773 au 
 T_jup = 3.251 
[ show covariance matrix ]

Ephemeris | Orbit Diagram | Orbital Elements | Mission Design | Physical Parameters | Discovery Circumstances | Close-Approach Data ]

Physical Parameter Table
Parameter Symbol Value Units Sigma Reference Notes
absolute magnitude H 10.1   n/a MPO502161 IRAS observations used: 8
diameter diameter 58.095 km 0.496 urn:nasa:pds:neowise_diameters_albedos::2.0[mainbelt] (http://adsabs.harvard.edu/abs/2012ApJ...759L...8M)  
rotation period rot_per 15.67 h n/a LCDB (Rev. 2019-August); Warner et al., 2009 Result based on less than full coverage, so that the period may be wrong by 30 percent or so.
Published Reference List:
[Binzel, R.P. (1987) Icarus 72, 135-208.]
[Behrend, R. (2005) Observatoire de Geneve web site, http://obswww.unige.ch/~behrend/page_cou.html]
geometric albedo albedo 0.048   0.008 urn:nasa:pds:neowise_diameters_albedos::2.0[mainbelt] (http://adsabs.harvard.edu/abs/2012ApJ...759L...8M)  
B-V BV 0.703   0.016 EAR-A-5-DDR-UBV-MEAN-VALUES-V1.2 #obs=2; phase (min.=1.47, mean=4.46, max.=7.45) deg.
U-B UB 0.324   0.023 EAR-A-5-DDR-UBV-MEAN-VALUES-V1.2 #obs=2; phase (min.=1.47, mean=4.46, max.=7.45) deg.
Tholen spectral type spec_T P   n/a EAR-A-5-DDR-TAXONOMY-V4.0 used 7 color indices; used ground-based radiometric albedo

838 Seraphina (A916 SL)          Discovered 1916-Sep-24 by Wolf, M. at Heidelberg
Reference: DISCOVERY.DBLast Updated: 2003-08-29

[ show close-approach data ]
Alternate Designations
 A916 SL = 2019 FC5 
Ephemeris | Orbit Diagram | Orbital Elements | Mission Design | Physical Parameters | Discovery Circumstances | Close-Approach Data ]
ABOUT SSD CREDITS/AWARDS PRIVACY/COPYRIGHT GLOSSARY LINKS
FirstGov 2020-Jul-07 04:33 UT
(server date/time)  
NASA Home Page
Site Manager:   Ryan S. Park
Webmaster  Alan B. Chamberlin